Home > Weather > Vincennes > Past weeks

Flag for USA Past Weather in Vincennes, Indiana, USA — Yesterday and Last 2 Weeks

Now
91 °F

Sunny.


Feels Like: 97 °F
Forecast: 74 / 92 °F
Wind: 7 mph from South

Location: Lawrenceville-Vincennes International Airport

Current Time: Jun 25, 2016 at 9:08:18 PM

Latest Report: Jun 25, 2016 at 7:53 PM


Visibility: 10 mi

Pressure: 30.02 "Hg

Humidity: 50%

Dew Point: 70 °F

Location of VincennesLocation

Past Weather in Vincennes — Graph

°F

Vincennes Temperature Yesterday

Maximum temperature yesterday: 89 °F (at 4:53 PM)
Minimum temperature yesterday: 68 °F (at 6:53 AM)
Average temperature yesterday: 79 °F

High & Low Weather Summary for the Past Weeks

 TemperatureHumidityPressure
High95 °F (Jun 12, 3:53 PM)97% (Jun 15, 4:53 AM)30.26 "Hg (Jun 15, 4:53 AM)
Low64 °F (Jun 17, 6:04 AM)32% (Jun 11, 2:53 PM)29.76 "Hg (Jun 15, 3:53 PM)
Average81 °F67%29.99 "Hg
* Reported Jun 10 7:53 PM — Jun 25 7:53 PM, Vincennes, Weather by CustomWeather, © 2016

Note: Actual official high and low records may vary slightly from our data, if they occured in-between our weather recording intervals... More about our weather records

Advertising

Vincennes Weather History for the Previous 24 Hours

Scroll right to see more
 ConditionsComfort  
Time TempWeatherWind HumidityBarometerVisibility
7:53 PM
Sat, Jun 25
91 °FSunny.7 mph50%30.02 "Hg10 mi
6:53 PM93 °FSunny.7 mph42%30.01 "Hg10 mi
5:53 PM93 °FSunny.7 mph42%30.01 "Hg10 mi
4:53 PM94 °FSunny.3 mph40%30.03 "Hg10 mi
3:53 PM93 °FSunny.6 mph40%30.03 "Hg10 mi
2:53 PM92 °FSunny.8 mph46%30.04 "Hg10 mi
1:53 PM91 °FSunny.7 mph49%30.06 "Hg10 mi
12:53 PM89 °FSunny.3 mph50%30.08 "Hg10 mi
11:53 AM87 °FSunny.9 mph51%30.09 "Hg10 mi
10:53 AM85 °FSunny.6 mph59%30.10 "Hg10 mi
9:53 AM82 °FSunny.5 mph67%30.10 "Hg10 mi
8:53 AM77 °FSunny.5 mph77%30.09 "Hg10 mi
7:53 AM72 °FFog.3 mph93%30.08 "Hg5 mi
6:53 AM68 °FFog.3 mph96%30.07 "Hg4 mi
5:53 AM69 °FFog.No wind93%30.06 "Hg6 mi
4:53 AM69 °FClear.3 mph93%30.06 "Hg7 mi
3:53 AM70 °FClear.No wind93%30.05 "Hg9 mi
2:53 AM70 °FClear.No wind93%30.06 "Hg10 mi
1:53 AM72 °FClear.No wind87%30.06 "Hg10 mi
12:53 AM72 °FClear.5 mph84%30.05 "Hg10 mi
11:53 PM
Fri, Jun 24
75 °FClear.No wind76%30.03 "Hg10 mi
10:53 PM73 °FClear.6 mph81%30.03 "Hg10 mi
9:53 PM76 °FSunny.6 mph74%30.01 "Hg10 mi
Weather by CustomWeather, © 2016

See weather overviewHow to use our weather pages